Wind_Speed
24 23 23 22 21 19 18 18 16 14 14 13 12 12 11 9 8 9 11 11 9 8 7 5 3 4 4 3 3 3 4 4 5 5 5 5 4 4 5 6 9 9
24 22 21 21 20 18 17 16 15 14 14 13 13 13 11 9 8 8 10 11 10 8 7 5 4 4 3 4 3 2 3 5 5 5 5 4 4 4 4 5 6 7
22 22 20 19 18 18 17 16 15 14 13 13 13 13 11 9 8 8 9 10 9 8 7 6 5 4 3 4 3 3 4 6 6 6 5 4 4 4 4 4 4 6
22 21 19 18 18 18 18 17 16 14 12 12 12 13 11 9 8 7 8 8 9 8 7 5 4 3 3 4 4 5 7 9 8 8 6 6 5 4 5 5 6 7
22 21 19 18 18 18 18 18 16 14 12 10 10 12 11 10 8 7 7 8 9 8 6 5 3 3 4 5 5 7 10 10 10 8 7 7 6 5 5 5 7 8
23 21 20 19 18 18 18 18 16 13 11 10 10 11 11 10 8 7 7 8 9 8 6 4 4 5 6 7 7 9 10 10 9 7 6 6 5 4 4 4 5 7
24 22 21 19 18 18 19 18 16 13 12 10 10 10 11 10 8 7 9 9 9 8 7 5 5 6 8 8 9 10 9 8 6 4 4 5 5 4 4 4 5 6
24 22 20 19 19 19 19 18 16 15 14 12 11 10 9 9 8 8 10 10 10 9 8 7 6 7 8 9 9 9 8 6 5 4 5 6 6 5 5 4 5 7
23 22 21 21 20 20 18 17 16 16 15 13 11 10 9 8 8 9 11 11 10 9 8 8 8 8 8 8 9 9 8 6 6 6 6 6 6 6 5 5 5 7
23 22 22 22 20 18 17 15 15 16 16 14 12 9 8 8 8 10 11 11 10 9 8 8 9 8 8 8 9 10 9 7 7 7 6 5 5 5 5 3 3 5
23 23 22 21 20 17 15 13 13 16 16 14 11 9 8 8 9 11 12 11 10 9 8 8 8 9 8 8 8 9 9 8 7 6 5 5 5 4 4 3 2 3
23 23 21 20 18 15 13 11 11 15 17 14 10 8 8 9 10 11 12 11 10 10 8 8 8 9 9 8 8 8 8 7 6 6 6 6 5 4 3 2 2 3
24 23 22 20 17 14 11 10 11 15 16 14 10 7 8 9 9 10 11 11 10 9 8 7 8 9 8 8 8 7 6 6 7 7 7 6 5 5 4 3 2 3
22 21 20 19 16 12 10 8 7 10 13 12 10 8 8 8 8 9 11 12 11 10 9 8 8 8 8 8 8 7 7 6 7 8 8 7 7 6 6 5 5 4
17 17 18 18 15 9 7 8 6 4 7 9 8 7 7 8 9 9 11 12 12 12 11 10 10 10 9 9 9 9 8 8 9 9 10 9 9 9 8 8 8 7
14 15 16 17 15 8 6 10 9 5 6 7 6 7 10 11 11 11 12 11 12 12 12 12 12 12 11 11 11 10 10 11 11 11 11 11 11 11 11 11 10 10
13 14 14 15 16 11 10 15 15 10 8 8 8 11 13 13 13 14 13 13 13 13 13 13 13 12 12 12 12 12 12 12 13 14 14 14 13 13 14 14 13 12
13 14 12 11 12 11 11 14 13 11 10 11 11 11 11 11 12 14 14 15 15 15 16 15 15 14 14 15 15 15 15 15 15 16 16 16 16 15 16 16 16 15
15 15 14 12 11 11 11 11 11 10 10 10 8 7 6 6 7 7 8 9 10 10 12 12 12 13 14 16 17 19 20 20 20 19 19 19 19 19 19 19 19 19
19 19 17 15 15 14 13 13 13 12 11 11 10 8 7 7 7 6 6 5 4 5 5 5 6 7 8 9 12 14 17 19 20 22 22 22 22 22 22 23 22 22
25 24 22 19 17 16 16 15 13 12 11 10 9 8 6 6 6 5 5 5 4 4 4 4 4 5 6 6 8 9 11 13 15 17 19 21 21 22 23 23 23 24
28 28 27 24 22 20 19 17 16 14 13 10 9 7 6 6 5 4 4 3 2 2 3 3 4 5 7 8 9 10 11 11 13 14 16 18 20 20 21 22 22 23
27 28 27 24 23 22 21 20 18 16 15 13 12 11 11 10 8 7 7 6 4 3 2 1 1 2 4 6 8 10 11 12 13 15 16 18 20 20 21 22 22 23
24 25 24 23 23 22 20 19 18 16 14 12 11 12 13 12 11 10 9 9 8 7 6 6 5 4 3 4 6 7 9 11 12 14 15 17 18 19 20 21 22 22
22 22 21 21 21 20 19 18 17 15 13 12 11 10 10 10 9 9 9 10 10 9 8 7 7 7 6 6 6 7 8 9 10 13 14 15 16 17 19 20 21 21
21 21 20 19 18 16 16 15 14 13 12 11 11 10 8 8 8 8 8 9 9 9 9 9 9 9 8 8 8 8 8 8 9 11 13 15 16 18 19 20 21 21
Wind_Direction
182 180 178 176 174 172 174 179 182 182 183 184 187 186 182 174 160 161 171 171 164 152 132 116 120 128 127 121 116 142 160 165 168 169 175 179 176 173 170 179 193 197
184 183 181 179 177 177 181 186 188 188 190 194 194 191 187 179 163 160 169 169 163 154 140 126 125 129 128 120 109 120 148 153 151 149 158 168 167 166 160 162 174 180
187 186 186 185 183 182 185 189 188 187 188 190 190 189 190 185 170 162 170 173 168 159 151 137 128 133 135 129 120 126 145 146 140 136 139 136 137 145 141 138 146 150
191 191 190 189 188 186 187 187 183 183 184 185 186 186 187 185 178 169 170 179 177 165 156 147 134 136 142 135 131 142 145 140 133 131 124 112 111 118 113 111 115 123
191 192 192 190 189 187 188 187 184 184 186 188 188 186 184 182 182 178 174 181 180 170 160 153 144 147 153 146 145 153 150 142 137 134 128 117 111 108 108 115 117 119
191 191 190 189 188 188 190 189 188 189 192 194 190 185 183 182 184 187 182 179 177 174 168 159 152 151 156 157 157 157 153 146 142 141 137 127 117 107 103 121 130 126
189 189 188 187 186 188 190 190 190 193 195 196 192 183 181 182 186 190 184 178 176 176 172 168 162 155 158 164 163 159 156 153 150 157 168 157 145 133 121 129 138 132
186 187 186 186 186 187 190 190 191 195 196 197 194 186 178 178 187 193 188 183 180 180 178 179 179 167 163 170 172 167 164 163 162 169 177 171 162 155 145 146 150 144
186 187 186 186 187 189 190 190 194 198 197 197 195 188 176 175 189 196 192 188 186 186 187 189 190 182 175 176 181 181 178 174 169 165 162 158 155 154 151 149 155 156
186 186 186 186 188 192 190 189 196 198 196 198 198 189 173 173 189 197 196 194 194 193 192 193 193 190 186 182 182 186 186 179 172 168 167 162 156 154 152 147 154 161
182 183 185 186 189 193 191 188 196 198 196 198 200 190 175 174 189 200 203 203 202 200 194 190 189 186 183 180 178 181 183 182 182 183 182 177 173 171 161 154 168 178
177 179 182 184 184 184 185 187 194 196 196 198 202 196 182 181 195 210 214 213 211 207 199 191 188 183 181 182 184 187 189 197 208 208 199 192 192 196 187 166 169 183
180 182 183 180 176 177 181 187 192 195 196 199 205 204 191 189 205 219 220 216 213 212 206 199 194 191 192 196 200 207 216 229 233 225 216 211 218 227 226 214 194 181
183 184 181 176 176 179 176 166 176 191 193 200 212 214 203 199 211 223 220 214 214 214 212 207 205 205 209 215 220 229 242 252 245 236 232 234 242 246 241 242 243 233
177 177 175 172 170 171 161 140 124 155 191 210 225 228 223 214 216 223 221 218 217 214 213 214 215 216 218 223 231 240 250 259 255 248 249 254 261 262 255 249 249 250
166 167 171 173 173 174 176 168 160 166 206 222 229 241 245 232 223 227 227 226 223 217 218 221 223 226 228 229 234 241 249 257 257 256 259 265 270 269 264 257 254 258
153 156 159 168 175 178 180 181 183 188 210 230 238 246 249 241 234 237 236 235 234 230 230 232 232 234 236 238 241 245 251 255 257 257 258 261 265 265 265 265 263 264
141 149 148 154 166 169 171 180 189 194 208 226 234 239 243 241 241 243 243 244 245 244 244 245 246 247 247 247 248 249 253 255 256 258 258 258 259 261 263 265 265 267
125 132 133 137 146 150 152 158 168 175 184 194 197 201 210 210 214 222 228 239 243 244 246 247 250 255 255 255 254 254 255 256 256 257 259 259 261 263 264 265 267 268
112 115 118 123 129 134 133 132 140 149 151 151 152 155 161 159 158 163 169 181 193 204 216 225 237 252 258 261 262 261 261 261 260 259 260 261 263 264 266 266 267 268
97 99 102 106 112 119 120 119 123 129 130 135 146 153 150 141 140 146 152 162 177 189 195 200 217 236 249 260 266 268 269 267 266 265 264 265 266 266 267 268 269 270
88 89 89 90 94 99 100 99 101 103 103 110 125 131 126 122 117 106 109 129 159 195 210 215 225 235 241 247 252 257 261 264 267 271 271 271 271 270 270 270 270 271
83 85 84 83 85 86 84 82 84 86 84 86 92 91 88 88 85 78 76 77 80 81 70 57 356 275 261 258 258 258 258 259 263 268 271 272 273 273 275 275 274 273
79 81 80 79 78 77 76 73 73 73 69 68 71 70 67 67 66 67 67 63 61 59 52 47 40 24 354 313 293 281 273 269 268 268 269 271 271 272 274 275 274 274
79 78 78 77 74 72 71 69 68 67 62 57 57 55 52 50 48 50 54 52 49 44 37 31 27 20 7 350 334 317 301 290 282 278 277 277 278 278 278 276 275 274
73 74 74 75 73 70 69 66 63 62 58 51 48 44 38 33 30 30 34 34 31 26 21 17 14 9 1 349 339 330 324 315 302 296 291 286 282 281 280 279 278 279
Height
810 812 813 815 817 818 820 821 823 824 826 828 829 830 832 833 834 834 835 836 837 838 838 839 839 840 841 841 842 842 843 843 843 844 844 844 845 846 847 847 847 848
810 811 812 814 816 817 819 821 823 825 826 828 829 831 832 833 834 834 835 836 837 838 839 839 840 840 841 841 842 843 843 844 844 844 845 845 846 846 846 847 847 848
810 811 812 813 815 817 819 821 823 825 827 828 830 831 832 833 834 835 835 836 837 838 839 840 840 841 841 842 843 844 844 845 845 845 846 846 846 846 847 847 847 848
809 810 811 813 815 817 819 821 823 825 827 828 830 831 832 833 834 835 836 837 837 838 839 840 840 841 842 843 844 845 845 846 847 847 847 847 847 847 847 848 848 848
808 810 811 813 815 817 820 822 824 826 827 828 829 830 831 832 834 835 836 837 837 838 839 840 841 841 842 843 844 846 846 847 848 848 848 848 849 849 848 849 849 849
809 810 812 814 816 818 820 822 824 826 827 828 829 830 831 832 834 835 836 837 838 839 839 840 841 842 843 844 845 846 847 848 849 849 850 850 850 850 850 850 850 850
809 811 813 815 816 818 820 822 824 826 827 828 829 830 830 832 834 836 837 837 838 839 839 840 841 842 843 845 846 847 848 848 849 850 850 851 851 851 851 851 852 852
809 811 813 815 816 817 820 822 824 826 827 828 829 830 830 831 834 836 837 838 838 839 840 840 841 842 844 845 846 847 848 849 850 850 851 851 852 852 852 853 853 853
809 811 813 814 815 817 819 821 823 825 827 828 829 830 830 831 834 836 838 839 839 840 840 841 842 843 844 845 846 847 848 849 850 851 851 852 852 853 853 853 854 854
809 811 813 814 815 817 819 821 822 825 827 828 829 829 829 831 833 836 838 839 840 840 841 842 842 843 844 845 846 847 848 849 850 851 852 852 853 853 854 854 854 855
808 810 812 814 815 817 819 821 822 824 827 828 829 829 829 831 834 836 838 839 840 841 841 842 843 844 844 845 846 847 848 849 850 851 852 853 853 854 854 854 855 855
807 809 811 813 815 816 818 820 821 824 826 828 829 829 830 832 834 836 838 839 840 841 842 842 843 844 844 845 846 847 848 849 850 851 852 853 854 854 855 855 855 855
806 808 810 812 814 816 818 819 821 824 826 828 829 829 830 832 835 837 838 839 840 841 842 842 843 844 845 846 846 847 848 849 850 851 852 853 854 854 854 855 855 855
806 808 810 812 814 816 817 819 821 824 826 829 829 830 831 833 835 837 838 839 840 841 841 842 843 844 845 846 847 847 848 849 850 851 852 852 853 854 854 855 855 855
807 809 811 812 814 816 818 819 822 825 827 829 830 830 832 834 835 837 838 839 840 840 841 842 842 843 844 845 846 847 848 849 850 850 851 852 852 853 854 854 854 854
808 810 812 813 814 817 819 820 823 826 828 829 829 830 832 834 835 837 838 839 840 840 841 842 842 843 843 844 845 846 847 848 849 849 850 851 851 852 853 853 854 854
808 811 812 814 815 818 820 822 824 826 827 829 830 832 833 834 835 836 837 838 839 840 841 841 842 842 843 844 844 845 846 847 848 848 849 850 850 851 851 852 853 853
811 812 813 815 817 819 820 821 823 824 827 830 832 833 833 833 834 835 836 837 838 839 840 841 841 842 842 843 844 844 845 846 846 847 847 848 849 849 850 850 851 851
813 814 815 816 819 820 820 821 822 825 828 830 831 832 832 833 834 834 835 836 837 838 839 839 840 840 841 841 842 843 844 844 845 845 846 847 847 848 848 849 849 850
814 815 817 818 820 821 821 823 824 826 828 829 830 832 833 833 834 834 835 835 836 837 837 838 838 839 839 839 840 841 841 842 843 843 844 845 845 846 846 847 847 848
816 817 819 821 822 822 823 825 826 827 828 829 830 832 833 833 834 834 834 835 836 836 837 837 838 838 838 838 838 839 840 840 841 841 842 843 843 844 844 845 846 846
820 820 822 824 825 825 825 826 827 828 829 830 831 832 833 833 834 834 834 834 835 836 836 837 837 837 837 837 837 837 838 839 839 840 840 841 842 842 843 843 844 844
824 823 825 827 827 827 828 828 829 830 831 832 833 833 834 834 834 834 834 834 835 835 836 836 836 836 836 836 836 836 836 837 837 838 839 839 840 841 841 842 843 843
828 828 829 830 830 830 831 831 831 832 833 833 834 834 835 835 835 835 834 834 835 835 836 836 836 836 836 835 836 836 836 836 836 836 837 837 838 838 839 840 841 841
831 831 831 832 832 833 833 834 834 834 835 835 835 835 836 836 836 836 835 835 835 835 836 836 836 836 836 835 835 835 835 835 835 835 835 835 836 836 837 838 839 839
832 832 833 833 834 834 834 835 835 836 836 836 836 837 837 837 837 836 836 836 836 836 836 836 836 836 835 835 835 835 835 834 834 834 833 833 834 834 835 835 836 836